Wind_Speed
7 7 8 9 10 11 11 11 12 13 13 14 14 14 15 16 17 18 18 19 20 21 21 22 23 24 23 23 23 23 22 21 20 19 18 17 16 15 13 11 9 6 5 3
6 7 7 8 9 9 10 10 11 12 12 13 14 14 15 16 17 18 18 19 20 21 21 22 22 23 23 23 23 23 23 22 21 20 19 18 17 16 14 13 10 8 6 4
6 6 7 7 8 8 9 9 10 10 11 11 12 13 14 15 16 17 17 18 19 20 21 21 22 23 23 23 23 23 23 23 22 21 21 19 18 17 16 14 12 10 8 6
4 5 5 6 7 8 8 9 9 9 10 10 11 12 13 14 15 16 17 18 19 19 20 21 21 22 23 23 23 24 24 24 24 23 22 20 19 18 17 16 14 12 10 8
3 3 4 5 6 6 7 8 8 9 9 10 11 12 13 13 14 15 16 17 18 18 19 20 20 21 22 23 23 23 24 24 24 24 23 22 21 20 19 18 16 14 12 11
2 3 4 5 6 6 7 7 8 8 9 9 10 11 12 12 13 13 14 15 16 17 18 18 19 20 21 21 22 22 23 23 24 24 24 23 22 21 21 20 19 17 15 14
4 5 5 5 5 6 6 7 8 9 9 9 10 11 11 12 12 13 14 14 15 16 17 18 18 19 19 20 21 21 22 22 23 23 23 23 22 21 21 20 19 19 18 16
7 7 7 7 7 7 7 8 9 9 9 10 10 11 11 12 12 12 13 14 14 15 15 16 17 17 18 19 20 20 21 21 22 22 22 22 22 21 21 21 20 19 18 17
10 10 10 10 9 9 9 10 10 10 10 10 11 11 11 12 12 12 12 13 13 14 14 15 16 16 17 17 18 19 19 20 20 21 21 21 21 21 21 20 20 20 19 18
13 13 12 12 12 12 12 12 12 11 11 11 11 11 12 12 12 12 12 12 13 13 13 14 15 15 16 16 17 17 18 18 19 19 20 20 20 21 20 20 20 20 19 18
16 15 15 15 15 15 15 15 15 14 14 14 13 13 13 13 12 12 12 13 13 13 13 13 14 14 14 15 15 15 16 16 17 17 17 18 18 19 19 19 18 18 19 18
18 18 17 18 18 18 18 18 17 17 17 17 16 16 15 15 14 14 14 14 14 13 13 13 13 13 13 13 13 14 14 14 14 15 15 15 15 16 16 17 17 17 17 17
22 22 21 21 21 21 21 21 20 20 20 19 19 19 19 18 18 17 16 16 16 15 15 14 14 13 13 13 13 13 12 12 12 13 13 13 13 13 13 14 14 15 15 15
26 26 25 25 25 25 25 24 24 23 23 22 22 22 22 21 21 20 20 19 18 18 17 16 16 15 14 13 13 12 12 11 11 11 11 11 11 11 11 11 11 12 12 13
31 30 30 29 29 29 29 28 28 27 27 26 26 25 25 24 24 23 23 22 21 20 20 19 18 17 16 15 14 14 13 12 11 11 10 10 10 9 9 9 9 9 9 10
34 35 35 34 34 34 33 33 32 32 31 30 30 29 29 28 27 27 26 26 25 24 23 22 21 20 19 18 17 16 15 14 13 12 11 11 10 9 8 8 7 7 7 7
37 38 39 39 39 39 38 38 37 36 36 35 34 34 33 32 31 31 31 30 29 27 27 26 25 24 23 22 20 19 18 17 16 15 13 13 12 11 10 9 8 7 6 6
41 42 42 43 43 43 42 42 42 41 41 40 40 39 38 37 36 35 35 34 32 31 30 30 29 28 27 25 24 23 22 21 20 18 17 16 15 14 13 12 10 9 8 7
44 44 45 46 46 47 47 47 46 46 46 45 44 43 43 41 40 40 39 38 36 35 34 35 33 32 30 29 28 27 26 24 23 22 21 19 18 17 16 15 14 13 12 11
46 46 47 48 49 50 51 51 51 51 51 51 50 49 48 47 46 45 44 42 40 39 39 39 37 36 34 34 33 31 30 28 27 26 25 23 22 21 19 18 17 16 15 14
45 46 47 49 50 51 52 53 53 54 54 55 55 54 53 52 51 50 49 47 45 45 44 43 41 40 39 38 37 35 34 32 31 30 28 27 26 25 23 22 21 20 19 18
44 45 46 48 49 51 53 54 55 56 57 57 58 58 57 56 56 55 54 52 50 49 49 47 46 44 43 42 41 39 38 36 35 33 32 31 30 29 27 26 25 24 23 22
45 45 46 48 49 50 52 53 54 56 57 58 59 59 60 60 60 59 58 57 55 54 53 51 50 49 48 47 45 43 42 40 39 38 36 35 34 32 31 30 29 28 27 26
46 47 48 49 50 51 52 53 54 55 56 57 58 59 60 61 61 61 61 60 60 59 58 56 55 54 53 52 50 48 46 45 43 42 41 39 38 36 35 34 33 32 31 30
50 51 52 53 53 54 54 55 55 56 56 57 58 59 60 61 62 63 63 63 63 63 62 61 60 58 58 56 55 54 52 50 48 47 45 44 42 41 39 38 37 36 35 34
53 54 55 56 56 57 57 57 58 58 58 58 58 59 60 61 62 63 64 65 65 65 65 65 64 63 62 61 60 58 57 55 54 52 50 49 47 45 44 42 41 40 39 38
56 57 58 59 59 59 59 59 59 59 58 58 58 58 59 59 60 61 62 64 65 66 66 66 66 66 66 65 64 63 62 60 59 57 55 54 52 51 49 47 46 45 43 42
Wind_Direction
65 60 59 57 54 51 49 46 42 38 35 32 32 31 31 29 25 22 20 20 21 22 22 21 22 22 23 22 22 22 22 21 20 20 20 20 18 15 15 13 12 9 1 338
59 54 52 53 53 50 47 44 40 34 32 29 30 30 29 27 24 21 21 22 22 22 22 21 21 22 23 24 24 24 25 24 24 23 22 21 19 17 16 15 15 15 13 2
49 42 43 47 48 46 41 38 33 30 27 26 27 27 26 25 23 22 21 22 22 22 22 23 23 23 24 25 26 26 26 26 26 25 24 23 22 21 22 22 23 24 23 22
52 43 35 42 43 43 41 37 33 27 23 21 21 21 22 21 20 19 19 20 21 23 24 24 24 25 26 26 27 28 28 28 28 29 28 28 28 28 28 29 30 30 27 27
43 33 28 27 28 29 31 32 30 26 22 18 16 17 17 15 14 14 15 18 20 22 23 23 24 24 25 26 27 28 28 29 30 30 30 31 32 33 33 34 35 35 36 36
330 340 356 4 6 9 13 16 14 13 10 7 7 9 11 10 8 8 9 13 16 18 20 21 22 23 24 25 26 27 27 29 30 31 32 33 34 35 36 38 39 39 39 40
286 295 310 323 333 341 345 352 355 356 355 354 355 358 1 4 5 5 6 9 13 15 17 19 20 22 23 24 24 24 25 27 28 30 31 33 34 36 37 39 40 41 42 44
279 284 289 296 304 312 320 328 334 337 339 341 343 345 348 350 353 357 360 4 7 9 10 12 15 17 18 20 21 22 23 25 27 28 30 32 33 35 37 38 40 40 43 44
273 278 284 289 294 299 303 308 313 318 323 327 330 333 335 338 341 346 350 355 359 1 2 4 6 8 11 14 16 18 20 23 25 27 30 32 33 35 38 39 41 42 43 45
270 275 280 285 289 293 296 298 301 304 308 312 316 319 322 325 330 334 338 343 346 350 353 356 358 1 3 6 9 11 15 19 21 24 28 32 33 35 37 40 42 43 44 46
271 275 279 283 286 289 290 290 291 293 296 299 303 306 309 311 314 320 324 328 333 336 340 344 348 352 355 358 1 4 7 12 16 19 23 27 31 33 36 38 41 42 44 46
274 276 277 279 281 282 284 285 286 287 288 290 292 295 298 300 303 305 308 313 317 321 326 330 334 338 343 347 351 355 358 2 6 11 15 20 24 28 33 36 39 41 44 46
274 275 276 277 278 279 280 282 283 284 285 286 287 288 289 291 293 295 297 300 303 306 310 314 319 323 326 331 336 342 347 350 354 360 5 10 16 21 26 31 35 39 42 45
274 275 275 276 277 277 278 279 279 280 281 281 282 283 284 285 286 288 290 292 293 295 297 300 304 307 311 314 318 323 329 335 340 345 351 357 3 9 16 21 26 31 37 42
273 273 273 274 275 275 276 276 276 277 277 277 278 278 279 280 281 282 283 284 285 287 288 290 293 295 297 300 304 307 311 315 319 324 330 336 343 351 359 7 13 20 26 33
269 271 272 272 272 273 273 274 274 274 274 274 275 275 275 276 277 278 278 278 279 280 282 283 284 285 287 289 291 294 297 300 303 305 308 312 317 322 330 338 347 355 4 12
266 268 270 271 271 271 272 272 273 273 273 273 273 273 273 273 273 274 274 274 275 276 277 277 277 278 279 280 282 283 285 287 290 292 294 295 297 300 303 308 315 322 328 336
265 266 267 268 270 270 271 272 272 272 272 272 271 271 271 271 270 270 270 271 272 272 272 272 273 274 274 275 276 276 277 278 279 281 283 285 285 285 286 288 290 294 299 302
266 266 266 267 267 268 268 269 269 270 270 270 270 270 270 269 269 269 268 268 269 269 268 268 269 270 271 271 271 272 273 273 273 274 275 276 277 277 277 277 278 278 280 283
266 266 266 267 267 268 268 268 268 268 269 269 269 268 268 267 267 266 266 266 266 266 265 266 267 267 267 267 268 268 269 269 269 270 270 270 271 271 271 271 271 271 272 273
268 267 267 267 268 268 268 269 269 269 268 268 268 268 267 266 266 265 264 264 263 263 262 263 264 264 265 265 265 265 265 266 266 266 266 266 267 267 267 266 266 267 267 268
273 272 271 271 270 270 270 270 270 270 269 269 268 268 267 266 265 264 264 263 261 261 260 260 261 261 262 262 262 262 262 263 263 263 263 263 263 264 264 264 264 264 264 264
277 277 276 276 275 274 274 273 273 272 271 270 270 269 267 266 265 264 262 261 261 260 259 258 258 258 258 259 260 260 260 260 260 260 261 261 261 261 262 262 262 262 262 262
280 280 280 280 279 278 278 277 276 275 273 272 271 270 268 267 266 265 263 261 259 258 258 257 256 256 256 256 257 257 258 258 258 258 258 259 259 259 260 260 261 261 261 261
282 282 282 282 282 281 280 279 278 277 275 274 273 272 270 268 266 264 263 262 260 258 256 255 255 254 254 254 254 255 255 256 256 256 256 257 257 258 258 258 259 259 260 260
284 284 284 284 284 284 283 282 281 279 278 276 274 272 271 269 267 265 263 261 260 258 256 255 254 253 252 252 252 253 253 254 254 254 255 255 256 256 257 257 258 258 258 259
285 286 286 286 286 285 285 284 283 282 280 278 276 273 271 269 267 265 263 261 259 257 255 254 253 252 252 251 251 251 251 251 252 253 253 253 254 254 255 256 256 257 257 258
Height
5891 5889 5887 5885 5883 5881 5879 5877 5875 5873 5870 5868 5865 5862 5859 5855 5852 5848 5844 5840 5836 5831 5827 5822 5817 5812 5807 5802 5797 5792 5787 5782 5778 5773 5769 5765 5761 5757 5754 5751 5749 5747 5746 5745
5891 5890 5888 5886 5884 5882 5880 5878 5876 5874 5872 5869 5866 5863 5860 5857 5853 5850 5846 5842 5838 5833 5829 5824 5819 5815 5810 5804 5800 5795 5790 5785 5780 5776 5771 5767 5763 5759 5755 5752 5749 5747 5745 5744
5892 5890 5889 5887 5885 5883 5881 5879 5877 5875 5873 5870 5867 5864 5861 5858 5855 5851 5848 5844 5839 5835 5831 5826 5822 5817 5812 5807 5802 5798 5793 5788 5783 5778 5773 5769 5765 5761 5757 5753 5750 5747 5746 5744
5892 5891 5890 5890 5886 5884 5882 5880 5878 5875 5873 5871 5868 5865 5862 5859 5856 5853 5849 5845 5841 5837 5833 5829 5824 5820 5815 5810 5806 5801 5796 5791 5786 5781 5776 5772 5767 5763 5759 5755 5752 5749 5747 5745
5892 5890 5889 5889 5886 5884 5882 5880 5878 5876 5874 5871 5868 5866 5863 5860 5857 5854 5851 5847 5843 5839 5835 5831 5827 5822 5818 5813 5809 5804 5799 5795 5790 5785 5780 5775 5770 5766 5762 5758 5755 5751 5748 5746
5891 5889 5889 5889 5886 5884 5883 5880 5878 5876 5874 5871 5869 5866 5864 5861 5858 5855 5851 5848 5844 5841 5837 5833 5829 5825 5821 5816 5812 5807 5803 5798 5793 5788 5783 5779 5774 5770 5766 5762 5758 5754 5751 5748
5889 5888 5887 5887 5885 5884 5883 5881 5878 5875 5873 5871 5868 5866 5864 5861 5858 5855 5852 5849 5845 5842 5838 5835 5831 5827 5823 5819 5815 5810 5806 5801 5797 5792 5787 5783 5778 5774 5770 5766 5762 5758 5755 5751
5886 5886 5887 5884 5883 5882 5881 5878 5877 5875 5873 5871 5868 5865 5863 5860 5858 5855 5852 5849 5846 5843 5839 5836 5832 5829 5825 5821 5817 5813 5809 5805 5800 5795 5791 5787 5782 5778 5774 5770 5766 5762 5759 5755
5884 5884 5882 5881 5880 5879 5878 5877 5875 5873 5871 5869 5867 5865 5862 5860 5857 5855 5852 5849 5846 5843 5840 5837 5834 5830 5827 5823 5819 5816 5812 5807 5803 5799 5795 5790 5786 5782 5778 5774 5770 5766 5763 5759
5879 5879 5878 5878 5877 5876 5875 5874 5872 5871 5869 5867 5865 5863 5861 5859 5857 5854 5851 5849 5846 5843 5840 5837 5834 5831 5828 5825 5821 5817 5814 5810 5806 5802 5798 5794 5790 5786 5782 5778 5775 5771 5768 5764
5875 5875 5874 5873 5872 5871 5870 5869 5868 5867 5866 5864 5863 5861 5859 5857 5855 5852 5850 5847 5845 5842 5840 5837 5834 5831 5828 5825 5822 5819 5815 5812 5808 5805 5801 5797 5794 5790 5787 5783 5779 5776 5773 5769
5870 5870 5870 5869 5867 5866 5866 5865 5864 5863 5861 5860 5859 5857 5856 5854 5852 5850 5848 5845 5843 5841 5839 5836 5833 5831 5828 5825 5822 5820 5816 5813 5810 5807 5804 5800 5797 5794 5790 5787 5784 5780 5777 5774
5864 5864 5863 5863 5862 5861 5860 5859 5858 5857 5856 5855 5854 5852 5851 5850 5848 5846 5844 5842 5840 5838 5836 5834 5832 5829 5827 5825 5822 5819 5817 5814 5811 5808 5805 5802 5799 5796 5793 5790 5787 5784 5781 5778
5856 5856 5856 5856 5855 5854 5853 5853 5852 5851 5850 5849 5848 5847 5845 5844 5843 5842 5840 5838 5837 5835 5833 5831 5829 5827 5825 5823 5820 5818 5816 5813 5811 5808 5806 5803 5800 5798 5795 5793 5790 5787 5785 5782
5847 5847 5847 5847 5846 5845 5845 5844 5844 5843 5842 5842 5841 5840 5839 5838 5837 5836 5834 5833 5832 5830 5828 5827 5825 5823 5821 5820 5818 5816 5814 5812 5810 5807 5805 5803 5801 5798 5796 5794 5792 5789 5787 5785
5837 5837 5837 5837 5836 5836 5835 5835 5835 5834 5834 5833 5832 5832 5831 5830 5830 5829 5827 5826 5825 5824 5823 5821 5820 5818 5817 5815 5814 5812 5811 5809 5807 5805 5803 5801 5800 5798 5796 5794 5792 5790 5788 5786
5827 5827 5826 5825 5825 5825 5824 5824 5824 5824 5824 5823 5823 5822 5822 5821 5821 5820 5819 5818 5818 5817 5816 5815 5813 5812 5811 5810 5809 5807 5806 5805 5803 5802 5800 5799 5797 5796 5794 5793 5791 5789 5788 5786
5815 5815 5814 5813 5813 5813 5812 5812 5812 5812 5812 5812 5811 5811 5811 5811 5811 5810 5809 5809 5809 5809 5808 5806 5805 5805 5804 5803 5802 5801 5800 5799 5798 5797 5796 5795 5793 5792 5791 5790 5789 5788 5786 5785
5801 5801 5800 5800 5800 5799 5799 5799 5798 5798 5798 5798 5798 5799 5799 5799 5799 5799 5798 5798 5798 5798 5797 5796 5796 5796 5796 5795 5794 5794 5793 5792 5792 5791 5790 5789 5788 5787 5786 5786 5785 5784 5783 5782
5786 5786 5785 5785 5784 5784 5783 5783 5783 5783 5783 5783 5783 5783 5784 5784 5785 5785 5785 5786 5787 5786 5785 5785 5785 5786 5785 5785 5785 5785 5784 5784 5784 5783 5783 5782 5782 5781 5781 5780 5780 5779 5779 5778
5771 5771 5770 5769 5768 5767 5767 5767 5766 5766 5766 5766 5766 5767 5767 5768 5769 5769 5770 5772 5773 5772 5772 5772 5773 5774 5774 5774 5774 5774 5775 5775 5775 5774 5774 5774 5774 5774 5774 5773 5773 5773 5773 5772
5755 5755 5754 5753 5752 5751 5750 5750 5749 5748 5748 5748 5748 5748 5749 5750 5751 5752 5753 5755 5756 5756 5757 5758 5759 5760 5760 5761 5761 5762 5763 5764 5764 5764 5764 5765 5765 5765 5765 5765 5765 5765 5765 5765
5739 5738 5737 5737 5736 5735 5733 5732 5731 5730 5729 5729 5729 5729 5729 5730 5731 5733 5734 5736 5737 5739 5740 5742 5743 5744 5745 5746 5747 5749 5750 5751 5752 5752 5753 5754 5754 5755 5755 5756 5756 5756 5757 5757
5723 5722 5720 5719 5718 5717 5716 5714 5713 5711 5710 5709 5709 5709 5709 5710 5710 5711 5713 5715 5717 5719 5721 5723 5725 5727 5728 5729 5731 5733 5735 5736 5738 5739 5740 5741 5742 5743 5744 5745 5746 5746 5747 5747
5706 5704 5703 5701 5699 5698 5696 5695 5694 5692 5691 5689 5688 5687 5687 5688 5689 5690 5690 5692 5694 5697 5700 5702 5704 5707 5709 5711 5714 5716 5718 5720 5722 5724 5726 5727 5729 5730 5732 5733 5734 5735 5736 5736
5689 5687 5684 5682 5680 5678 5676 5674 5673 5671 5669 5668 5666 5665 5665 5664 5665 5666 5667 5669 5671 5673 5676 5679 5682 5685 5688 5691 5694 5697 5699 5702 5705 5707 5710 5712 5714 5716 5717 5719 5720 5722 5723 5724
5671 5668 5665 5663 5660 5658 5655 5653 5651 5649 5647 5646 5644 5643 5642 5641 5641 5641 5642 5644 5646 5648 5651 5655 5658 5662 5665 5669 5672 5676 5679 5682 5685 5688 5691 5694 5697 5699 5701 5703 5705 5707 5709 5710